Simultaneous Nadir Overpasses (SNOs) Predictions

Prediction of SNOs between AQUA and NPP Satellite Orbit:

Table of predicted SNOs for the next 14.0 days since TLE Epoch: 9/4/2015
Index Date (AQUA) Time (AQUA) Lat,Lon (AQUA) SZA (AQUA ) Date (NPP) Time (NPP) Lat,Lon (NPP) SZA (NPP ) Distance(km) Time Diff (sec)
1 09/05/2015 19:24:04 63.73, 109.76 103.19 09/05/2015 19:22:51 63.76, 109.41 103.37 17.20 73
2 09/05/2015 20:11:11 -71.63, -73.33 84.70 09/05/2015 20:11:11 -71.63, -73.37 84.68 1.68 0
3 09/05/2015 20:57:45 79.78, 122.11 85.74 09/05/2015 20:58:58 79.57, 123.17 85.55 31.82 73
4 09/08/2015 11:38:48 69.69,-128.03 98.20 09/08/2015 11:37:54 69.69,-128.06 98.27 1.43 54
5 09/08/2015 12:27:17 -72.90, 44.83 85.10 09/08/2015 12:27:38 -72.90, 44.89 85.14 2.14 21
6 09/11/2015 03:55:04 70.43, -11.11 98.37 09/11/2015 03:54:32 70.42, -11.17 98.43 2.45 32
7 09/11/2015 04:43:36 -73.44, 161.80 84.74 09/11/2015 04:44:19 -73.45, 161.86 84.80 1.92 43
8 09/13/2015 20:11:17 71.30, 106.12 98.41 09/13/2015 20:11:07 71.30, 106.06 98.44 2.29 10
9 09/13/2015 21:00:04 -73.50, -82.20 83.86 09/13/2015 21:01:10 -73.49, -82.27 83.90 2.57 66
10 09/16/2015 11:38:49 -69.72, 52.00 79.08 09/16/2015 11:37:44 -69.72, 52.01 79.01 0.47 65
11 09/16/2015 12:27:27 72.26,-136.36 98.36 09/16/2015 12:27:39 72.26,-136.39 98.36 0.92 12




NCC Satellite Simultaneous Nadir
